CAPE
0 0 24 13 3 1 3 5 4 0 0 0 0 0 0 0 0 0 0 0 0 0 0 0 0 0 0 0 0 0 0 0 0 0 0 0 0 0 0 0 0 0 0
0 0 2 8 4 6 11 6 0 0 0 0 0 0 0 0 0 0 0 0 0 0 0 0 0 0 0 0 0 0 0 0 0 0 0 0 0 0 0 0 0 0 0
0 0 0 6 9 6 2 2 0 0 0 0 0 0 0 0 0 0 0 0 0 0 0 0 0 0 0 0 0 0 0 0 0 0 0 0 0 0 0 0 0 0 0
0 0 0 0 5 9 7 1 0 0 0 0 0 0 0 0 0 0 0 0 0 0 0 0 0 0 0 0 0 0 0 0 0 0 0 0 0 0 0 0 0 0 0
0 0 0 0 1 4 3 0 0 0 0 0 0 0 0 0 0 0 0 0 0 0 0 0 0 0 0 0 0 0 0 0 0 0 0 0 0 0 0 0 0 0 0
15 7 4 0 1 0 2 1 0 7 0 0 0 0 0 0 0 0 0 0 0 0 0 0 0 0 0 0 0 0 0 0 0 0 0 0 0 0 0 0 0 0 0
43 134 64 41 0 3 3 3 0 0 0 0 0 0 0 0 0 0 0 0 0 0 0 0 0 0 0 0 0 0 0 0 0 0 0 0 0 0 0 0 0 0 0
110 176 120 50 0 0 0 2 7 0 0 0 0 0 0 0 0 0 0 0 0 0 0 0 0 0 0 0 0 0 0 0 0 0 0 0 0 0 0 0 0 0 0
47 165 167 83 0 0 0 2 4 0 0 0 0 0 0 0 0 0 0 0 0 0 0 0 0 0 0 0 0 0 0 0 0 0 0 0 0 0 0 0 0 0 0
0 70 107 54 11 0 0 0 0 0 0 0 0 0 0 0 0 0 0 0 0 0 0 0 0 0 0 0 0 0 0 0 0 0 0 0 0 0 0 0 0 0 0
0 9 12 12 0 0 0 0 0 0 0 0 0 0 0 0 0 0 0 0 0 0 0 0 0 0 0 0 0 0 0 0 0 0 0 0 0 0 0 0 0 0 0
0 44 58 0 0 0 0 0 0 0 0 0 0 0 0 0 0 0 0 0 0 0 0 0 0 0 0 0 0 0 0 0 0 0 0 0 0 0 0 0 0 0 0
0 0 121 17 0 0 0 0 0 0 0 0 0 0 0 0 0 0 0 0 0 0 0 0 0 0 0 0 0 0 0 0 0 0 0 0 0 0 0 0 0 0 1
0 0 0 12 0 0 0 0 0 0 0 0 0 0 0 0 0 0 0 0 0 0 0 0 0 0 0 0 0 0 0 0 0 0 0 0 0 0 0 0 1 1 3
0 0 0 5 2 3 0 0 0 0 0 0 0 0 0 0 0 0 0 0 0 0 0 0 0 0 0 0 0 0 0 0 0 0 0 0 0 0 0 0 0 2 5
0 0 0 0 4 6 2 0 0 0 0 0 0 0 0 0 0 0 0 0 0 0 0 0 0 0 0 0 0 0 0 0 0 0 0 0 0 0 0 0 1 13 14
0 0 3 6 6 4 0 0 0 0 0 0 0 0 0 0 0 0 0 0 0 0 0 0 0 0 0 0 0 0 0 0 0 0 0 0 0 0 1 2 6 10 19
1 2 0 0 0 0 0 0 0 0 0 0 0 0 0 0 0 0 0 0 0 0 0 0 0 0 0 0 0 0 0 0 0 0 0 0 1 2 4 9 17 7 5
0 0 0 0 0 0 0 0 0 0 0 0 0 0 0 0 0 0 0 0 0 0 0 0 0 0 0 0 0 0 0 0 0 0 1 1 2 1 10 16 8 6 8
0 0 0 0 0 0 0 0 0 0 0 0 0 0 0 0 0 0 0 0 0 0 0 0 0 0 0 0 0 0 0 0 0 1 1 1 3 6 10 6 8 9 5
0 0 0 0 0 0 0 0 0 0 0 0 0 0 0 0 0 0 0 0 0 0 0 0 0 0 0 0 0 0 0 0 2 1 1 0 5 5 4 7 5 6 18
0 0 0 0 0 0 0 0 0 0 0 0 0 0 0 0 0 0 0 0 0 0 0 0 0 0 0 0 0 3 1 1 1 1 0 1 0 0 1 0 4 8 6
0 0 1 0 0 0 0 0 1 1 0 0 0 0 0 0 0 0 0 0 0 0 0 0 0 0 0 0 0 0 0 0 2 1 0 0 0 0 0 1 1 1 1
0 1 2 1 1 2 1 0 0 0 0 0 0 0 0 1 1 0 0 0 0 0 0 0 0 0 0 0 2 0 1 1 4 6 8 0 0 0 1 1 0 1 3
0 0 1 1 1 1 1 1 0 0 0 0 2 2 1 0 0 0 0 0 0 0 0 0 0 0 0 5 1 1 1 4 3 3 1 0 0 0 0 0 1 4 5
3 2 2 0 0 0 0 0 0 0 0 0 1 1 1 0 0 1 2 4 2 2 0 1 0 2 7 1 0 0 1 0 0 0 0 0 0 1 1 3 4 5 8
CIN
-0 -0 -18 -52 -0 -0 -0 -0 -0 -0 -0 -0 -0 -0 -0 -0 -0 -0 -0 -0 -0 -0 -0 -0 -0 -0 -0 -0 -0 -0 -0 -0 -0 -0 -0 -0 -0 -0 -0 -0 -0 -0 -0
-0 -0 -0 -0 -0 -0 -53 -0 -0 -0 -0 -0 -0 -0 -0 -0 -0 -0 -0 -0 -0 -0 -0 -0 -0 -0 -0 -0 -0 -0 -0 -0 -0 -0 -0 -0 -0 -0 -0 -0 -0 -0 -0
-0 -0 -0 -0 -0 -0 -0 -0 -0 -0 -0 -0 -0 -0 -0 -0 -0 -0 -0 -0 -0 -0 -0 -0 -0 -0 -0 -0 -0 -0 -0 -0 -0 -0 -0 -0 -0 -0 -0 -0 -0 -0 -0
-0 -0 -0 -0 -0 -0 -0 -0 -0 -0 -0 -0 -0 -0 -0 -0 -0 -0 -0 -0 -0 -0 -0 -0 -0 -0 -0 -0 -0 -0 -0 -0 -0 -0 -0 -0 -0 -0 -0 -0 -0 -0 -0
-0 -0 -0 -0 -0 -0 -0 -0 -0 -0 -0 -0 -0 -0 -0 -0 -0 -0 -0 -0 -0 -0 -0 -0 -0 -0 -0 -0 -0 -0 -0 -0 -0 -0 -0 -0 -0 -0 -0 -0 -0 -0 -0
-54 -33 -38 -0 -0 -0 -0 -0 -0 -1 -0 -0 -0 -0 -0 -0 -0 -0 -0 -0 -0 -0 -0 -0 -0 -0 -0 -0 -0 -0 -0 -0 -0 -0 -0 -0 -0 -0 -0 -0 -0 -0 -0
-54 -32 -74 -156 -0 -0 -14 -0 -0 -0 -0 -0 -0 -0 -0 -0 -0 -0 -0 -0 -0 -0 -0 -0 -0 -0 -0 -0 -0 -0 -0 -0 -0 -0 -0 -0 -0 -0 -0 -0 -0 -0 -0
-49 -28 -75 -157 -0 -0 -0 -0 -0 -0 -0 -0 -0 -0 -0 -0 -0 -0 -0 -0 -0 -0 -0 -0 -0 -0 -0 -0 -0 -0 -0 -0 -0 -0 -0 -0 -0 -0 -0 -0 -0 -0 -0
-62 -46 -76 -131 -0 -0 -0 -81 -32 -0 -0 -0 -0 -0 -0 -0 -0 -0 -0 -0 -0 -0 -0 -0 -0 -0 -0 -0 -0 -0 -0 -0 -0 -0 -0 -0 -0 -0 -0 -0 -0 -0 -0
-0 -27 -37 -123 -163 -0 -0 -0 -0 -0 -0 -0 -0 -0 -0 -0 -0 -0 -0 -0 -0 -0 -0 -0 -0 -0 -0 -0 -0 -0 -0 -0 -0 -0 -0 -0 -0 -0 -0 -0 -0 -0 -0
-0 -29 -88 -81 -106 -0 -0 -0 -0 -0 -0 -0 -0 -0 -0 -0 -0 -0 -0 -0 -0 -0 -0 -0 -0 -0 -0 -0 -0 -0 -0 -0 -0 -0 -0 -0 -0 -0 -0 -0 -0 -0 -0
-0 -101 -75 -0 -0 -0 -0 -0 -0 -0 -0 -0 -0 -0 -0 -0 -0 -0 -0 -0 -0 -0 -0 -0 -0 -0 -0 -0 -0 -0 -0 -0 -0 -0 -0 -0 -0 -0 -0 -0 -0 -0 -0
-0 -0 -76 -117 -0 -0 -0 -0 -0 -0 -0 -0 -0 -0 -0 -0 -0 -0 -0 -0 -0 -0 -0 -0 -0 -0 -0 -0 -0 -0 -0 -0 -0 -0 -0 -0 -0 -0 -0 -0 -0 -0 -0
-0 -0 -0 -165 -0 -0 -0 -0 -0 -0 -0 -0 -0 -0 -0 -0 -0 -0 -0 -0 -0 -0 -0 -0 -0 -0 -0 -0 -0 -0 -0 -0 -0 -0 -0 -0 -0 -0 -0 -0 -0 -0 -0
-0 -0 -0 -2 -0 -0 -0 -0 -0 -0 -0 -0 -0 -0 -0 -0 -0 -0 -0 -0 -0 -0 -0 -0 -0 -0 -0 -0 -0 -0 -0 -0 -0 -0 -0 -0 -0 -0 -0 -0 -0 -0 -0
-0 -0 -0 -0 -0 -0 -0 -0 -0 -0 -0 -0 -0 -0 -0 -0 -0 -0 -0 -0 -0 -0 -0 -0 -0 -0 -0 -0 -0 -0 -0 -0 -0 -0 -0 -0 -0 -0 -0 -0 -0 -0 -0
-0 -0 -0 -0 -0 -0 -0 -0 -0 -0 -0 -0 -0 -0 -0 -0 -0 -0 -0 -0 -0 -0 -0 -0 -0 -0 -0 -0 -0 -0 -0 -0 -0 -0 -0 -0 -0 -0 -0 -0 -0 -0 -0
-0 -0 -0 -0 -0 -0 -0 -0 -0 -0 -0 -0 -0 -0 -0 -0 -0 -0 -0 -0 -0 -0 -0 -0 -0 -0 -0 -0 -0 -0 -0 -0 -0 -0 -0 -0 -0 -0 -0 -0 -0 -0 -0
-0 -0 -0 -0 -0 -0 -0 -0 -0 -0 -0 -0 -0 -0 -0 -0 -0 -0 -0 -0 -0 -0 -0 -0 -0 -0 -0 -0 -0 -0 -0 -0 -0 -0 -0 -0 -0 -0 -0 -0 -0 -0 -0
-0 -0 -0 -0 -0 -0 -0 -0 -0 -0 -0 -0 -0 -0 -0 -0 -0 -0 -0 -0 -0 -0 -0 -0 -0 -0 -0 -0 -0 -0 -0 -0 -0 -0 -0 -0 -0 -0 -0 -0 -0 -0 -0
-0 -0 -0 -0 -0 -0 -0 -0 -0 -0 -0 -0 -0 -0 -0 -0 -0 -0 -0 -0 -0 -0 -0 -0 -0 -0 -0 -0 -0 -0 -0 -0 -0 -0 -0 -0 -0 -0 -0 -0 -0 -0 -0
-0 -0 -0 -0 -0 -0 -0 -0 -0 -0 -0 -0 -0 -0 -0 -0 -0 -0 -0 -0 -0 -0 -0 -0 -0 -0 -0 -0 -0 -0 -0 -0 -0 -0 -0 -0 -0 -0 -0 -0 -0 -0 -0
-0 -0 -0 -0 -0 -0 -0 -0 -0 -0 -0 -0 -0 -0 -0 -0 -0 -0 -0 -0 -0 -0 -0 -0 -0 -0 -0 -0 -0 -0 -0 -0 -0 -0 -1 -0 -0 -0 -0 -0 -0 -0 -0
-0 -0 -0 -0 -0 -0 -0 -0 -0 -0 -0 -0 -0 -0 -0 -0 -0 -0 -0 -0 -0 -0 -0 -0 -0 -0 -0 -0 -0 -0 -0 -0 -0 -0 -0 -0 -0 -0 -0 -0 -0 -0 -0
-0 -0 -0 -0 -0 -0 -0 -0 -0 -0 -0 -0 -0 -0 -0 -0 -0 -0 -0 -0 -0 -0 -0 -0 -0 -0 -0 -0 -0 -0 -0 -0 -0 -0 -0 -0 -0 -0 -0 -0 -0 -0 -0
-0 -0 -0 -0 -0 -0 -0 -0 -0 -0 -0 -0 -0 -0 -0 -0 -0 -0 -0 -0 -0 -0 -0 -0 -0 -0 -0 -0 -0 -0 -0 -0 -0 -0 -0 -0 -0 -0 -0 -0 -0 -0 -0
Wind_Speed
20 22 20 17 16 17 16 17 16 20 15 12 12 11 11 9 9 8 12 12 11 11 10 8 7 6 6 7 8 7 9 6 3 4 4 3 3 3 3 2 4 6 7
22 21 22 18 17 19 23 19 17 18 18 12 11 10 11 9 9 8 10 10 11 10 9 9 8 7 7 8 6 5 5 5 4 1 1 3 4 3 1 2 2 6 7
24 22 23 24 18 17 20 20 19 20 18 17 11 10 10 9 7 9 9 9 11 10 10 10 8 7 6 6 7 6 5 5 5 8 4 0 3 4 2 3 1 5 6
23 23 23 24 22 19 16 18 16 18 19 19 15 19 12 12 10 10 9 9 11 11 10 10 9 8 6 8 7 6 6 4 5 4 6 7 4 3 3 3 2 5 6
25 26 24 24 23 21 18 20 18 15 18 20 17 14 14 11 10 10 14 12 10 10 10 10 10 9 7 8 8 7 7 5 5 4 2 4 3 3 2 4 6 7 4
25 25 24 23 21 18 18 18 22 20 19 20 19 19 18 16 13 13 11 10 9 9 10 10 9 9 9 8 7 7 7 6 5 4 4 3 2 3 2 4 9 10 5
24 23 25 23 23 22 18 18 23 22 19 21 20 19 18 19 19 17 12 14 10 9 10 10 10 8 9 9 8 7 7 5 5 4 4 3 3 1 2 4 6 6 9
23 25 26 24 23 26 25 19 23 24 23 22 21 18 18 12 13 16 13 10 10 11 13 10 10 10 10 9 8 6 5 5 4 5 4 2 2 1 2 3 5 7 6
23 25 25 25 26 27 29 28 23 24 23 24 19 18 16 17 15 17 15 11 12 11 12 11 11 10 10 9 8 6 6 5 4 4 3 2 1 1 2 3 3 4 6
20 22 23 24 24 27 26 28 28 26 24 20 20 16 18 17 16 15 17 16 14 14 13 12 11 10 9 9 7 6 5 5 4 3 2 2 1 2 2 3 4 4 7
19 21 23 24 24 22 24 25 24 23 22 21 20 19 17 16 16 15 16 15 15 14 12 13 12 11 9 8 7 6 6 5 5 3 1 1 2 3 3 3 4 5 6
14 19 23 24 22 23 23 24 24 23 22 23 20 21 19 17 16 15 16 16 15 13 14 13 12 11 9 8 7 6 5 5 4 3 1 1 2 4 4 4 6 7 8
11 18 22 22 24 24 23 24 24 25 22 21 21 19 19 18 17 16 17 16 15 13 12 12 12 11 9 8 6 6 6 5 4 2 0 2 3 4 4 6 7 7 7
7 13 20 21 22 21 22 22 22 21 22 21 22 20 20 20 17 17 17 17 14 14 11 12 11 11 9 8 7 6 6 5 4 2 1 2 4 5 6 6 7 7 8
1 7 14 17 20 20 19 18 19 21 21 22 19 20 20 20 19 17 17 16 15 13 12 13 11 10 9 7 7 6 5 4 3 1 1 2 4 6 6 6 8 10 8
2 8 13 18 19 18 17 18 19 19 19 22 19 18 19 21 20 18 17 17 15 14 14 12 11 10 6 11 10 7 5 4 1 1 2 3 4 3 8 10 12 11 11
5 10 12 15 14 16 18 18 18 18 17 18 20 20 20 22 19 18 17 16 15 15 13 12 11 10 9 12 11 8 4 2 1 2 3 3 3 5 7 10 12 11 11
8 10 8 7 9 12 14 16 18 18 19 19 19 20 21 22 20 19 17 14 13 15 12 12 11 10 8 10 10 8 3 1 1 2 3 5 6 6 9 10 10 9 11
10 11 9 11 11 14 16 18 17 19 19 18 19 20 20 22 21 18 17 13 14 13 11 10 11 10 9 8 7 4 3 1 2 2 3 6 7 9 14 10 10 12 11
11 12 12 10 11 11 14 17 18 19 19 19 19 17 20 21 18 17 15 14 14 13 10 11 9 10 8 7 5 3 1 1 2 3 4 4 8 13 14 11 11 11 11
13 14 12 10 10 11 12 14 15 15 17 19 19 18 19 19 17 15 14 14 13 12 11 11 8 8 7 6 5 2 1 2 2 4 4 5 10 15 16 15 10 11 13
14 14 13 11 11 10 13 14 15 15 17 19 20 20 18 14 13 16 13 14 12 12 10 9 8 6 5 5 5 4 4 5 4 4 5 6 14 13 13 10 14 15 13
14 14 14 14 14 12 12 20 14 18 19 22 21 20 18 15 14 14 14 11 10 8 8 7 6 6 4 4 6 5 5 2 4 4 7 11 13 12 9 11 13 12 7
15 15 15 16 18 15 15 15 16 17 22 23 20 16 16 15 12 11 9 8 7 7 7 7 6 5 5 4 3 2 2 1 3 5 5 8 9 8 9 8 8 7 7
14 15 16 17 18 18 17 14 17 20 22 19 16 14 12 14 13 10 8 7 6 6 7 7 7 6 5 4 6 5 4 6 7 8 5 5 6 7 7 7 9 8 8
15 16 17 19 19 20 20 16 17 18 18 16 12 12 11 11 10 9 9 13 14 15 14 12 8 6 8 8 7 7 9 8 8 3 4 5 6 7 8 9 9 10 10
Wind_Direction
205 201 200 189 182 175 169 182 179 168 164 165 159 158 163 160 157 155 151 151 148 144 137 128 124 122 114 109 104 97 102 84 93 133 128 135 130 104 80 65 55 42 27
214 196 190 186 189 184 180 175 180 172 166 165 159 157 151 158 147 142 149 149 148 145 139 135 125 121 117 109 107 123 110 83 38 75 191 155 157 191 57 108 28 22 13
213 199 190 188 184 190 172 174 179 172 170 161 146 135 124 127 141 152 148 154 148 144 137 131 126 118 110 100 89 81 91 114 64 47 4 122 26 330 149 207 358 2 2
215 207 198 187 185 182 173 168 178 175 169 158 158 159 158 159 160 156 151 149 147 142 137 132 127 118 116 107 93 82 81 92 99 88 57 58 25 359 316 173 342 330 357
215 206 199 192 181 177 177 163 171 178 173 174 169 167 157 151 148 150 152 151 148 145 140 136 131 125 114 107 106 97 85 76 86 74 104 71 64 56 334 307 334 326 357
212 207 197 187 177 182 176 171 156 192 175 181 173 171 161 151 151 155 156 157 152 149 145 140 132 127 122 115 106 100 94 92 90 90 77 60 30 22 337 309 327 325 348
213 203 193 187 177 176 177 180 169 175 186 182 175 169 161 160 160 160 160 157 156 158 155 147 143 135 128 123 119 111 107 100 98 87 86 79 65 30 324 307 315 309 318
209 201 195 186 176 170 162 175 180 174 190 174 177 171 165 164 163 166 159 157 159 157 154 148 142 136 133 127 123 118 112 111 101 95 77 74 54 357 327 315 318 315 304
213 207 199 189 176 174 171 172 183 178 184 174 173 172 168 163 164 163 161 155 152 149 151 147 141 138 134 133 130 124 121 114 104 97 97 57 55 326 312 299 300 307 308
219 208 202 192 185 181 181 175 177 178 178 178 168 169 170 166 161 157 161 157 151 149 148 147 140 140 136 135 128 126 125 120 108 100 93 67 11 302 300 294 291 281 284
222 212 202 193 191 187 177 176 177 172 175 172 168 164 166 161 157 158 156 152 149 147 151 149 144 140 143 137 131 130 129 120 118 119 99 31 338 309 304 304 288 287 288
234 218 202 195 189 183 175 177 171 172 177 171 167 164 160 158 153 155 154 149 142 148 148 149 142 140 143 133 142 139 130 127 132 127 147 350 328 306 304 303 295 295 297
235 225 209 193 189 182 178 173 173 177 167 164 163 160 157 154 153 151 146 144 141 132 147 147 139 144 137 142 130 136 132 124 129 130 101 338 315 303 314 307 301 303 301
260 208 211 191 189 181 177 176 168 166 163 163 161 161 160 151 148 146 144 139 140 136 146 142 138 137 139 132 142 140 132 131 127 124 57 327 313 315 314 305 303 308 305
330 185 200 183 183 182 178 171 165 164 162 160 163 164 156 142 138 140 140 136 133 135 134 133 136 137 135 144 151 137 130 138 131 134 325 308 342 312 318 312 315 307 307
207 164 178 172 173 174 171 165 162 163 163 150 159 154 146 137 136 137 137 132 130 131 136 140 136 137 135 142 131 129 138 129 102 360 324 330 283 309 308 305 301 300 303
172 149 177 175 168 165 162 158 152 150 147 153 150 146 145 134 135 133 134 132 130 135 135 135 137 133 137 135 120 131 115 118 70 349 332 328 321 304 315 301 299 296 313
157 143 130 118 127 135 136 132 137 138 137 147 146 143 141 132 132 133 129 132 130 133 133 136 133 135 124 126 128 121 126 134 49 349 333 323 322 319 317 309 309 315 304
166 150 131 129 130 132 135 133 132 133 137 142 139 139 137 132 129 129 127 133 124 128 128 131 136 127 118 126 122 139 146 83 8 347 329 329 320 328 314 320 320 311 304
144 134 122 115 121 129 136 136 138 140 137 138 130 135 129 122 123 122 130 123 125 122 122 122 120 120 120 109 116 137 123 353 1 349 326 310 322 316 328 321 308 303 308
124 116 110 111 114 121 125 122 128 132 130 124 122 120 113 117 118 121 111 114 114 116 118 115 113 111 109 112 109 112 97 8 358 329 330 328 336 338 325 319 310 311 312
109 104 99 99 97 108 114 107 106 110 112 115 110 105 108 106 114 108 113 108 113 115 120 124 117 112 114 109 100 63 35 29 340 337 325 334 337 328 323 324 321 322 320
99 91 93 91 86 87 105 108 110 112 111 100 100 98 97 103 104 111 102 99 106 123 134 131 122 117 121 115 70 63 29 20 333 343 339 328 328 327 322 334 327 326 328
100 100 95 89 87 85 88 90 109 110 104 96 94 102 104 105 97 89 97 109 127 130 133 125 123 125 114 96 89 38 6 6 329 347 310 326 316 313 317 315 327 335 331
89 96 98 95 93 90 86 93 97 95 92 95 99 100 99 93 92 87 103 112 117 129 126 124 123 118 109 79 56 24 355 355 350 335 335 328 333 338 332 333 334 329 327
96 95 96 95 95 91 87 85 89 92 99 101 100 100 96 93 100 112 118 114 111 109 107 108 110 102 93 72 43 21 21 7 3 346 341 342 347 342 337 336 334 325 322